DW9005 Weather Reports


time (UTC)temp
F
wind
direction
speed
knots
gust
knots
rain 1hr
in
rain 24hr
in
rain mn
in
humidity
%
barometer
mb
20260502224550 67 269 0.0 0.0 0.00 0.00 0.00 39 1015.7
20260502223040 66 296 0.0 0.0 0.00 0.00 0.00 41 1015.6
20260502221532 66 332 0.0 0.0 0.00 0.00 0.00 41 1015.5
20260502220021 67 291 0.0 0.0 0.00 0.00 0.00 39 1015.4
20260502214514 67 337 0.0 0.0 0.00 0.00 0.00 40 1015.3
20260502213003 67 284 0.0 0.0 0.00 0.00 0.00 40 1015.3
20260502211503 68 35 0.0 0.0 0.00 0.00 0.00 40 1015.2
20260502210006 67 333 0.0 0.0 0.00 0.00 0.00 41 1015.3
20260502204502 68 292 0.0 0.0 0.00 0.00 0.00 38 1015.3
20260502203059 67 281 0.0 0.0 0.00 0.00 0.00 38 1015.4
20260502201601 67 224 0.0 0.0 0.00 0.00 0.00 38 1015.5
20260502200100 67 282 0.0 0.0 0.00 0.00 0.00 39 1015.5
20260502194603 67 333 0.0 0.0 0.00 0.00 0.00 37 1015.5
20260502193057 67 329 0.0 0.0 0.00 0.00 0.00 40 1015.5
20260502191539 66 314 0.0 0.0 0.00 0.00 0.00 43 1015.5
20260502190042 66 312 0.0 0.0 0.00 0.00 0.00 43 1015.7
20260502184521 65 355 0.0 0.0 0.00 0.00 0.00 44 1015.8
20260502183016 65 309 0.0 0.0 0.00 0.00 0.00 45 1015.9
20260502181557 65 314 0.0 0.0 0.00 0.00 0.00 46 1016.0
20260502163053 60 271 0.0 0.0 0.00 0.00 0.00 59 1016.7
20260502161533 59 286 0.0 0.0 0.00 0.00 0.00 61 1016.7
20260502151554 57 360 0.0 0.0 0.00 0.00 0.00 67 1016.3
20260502123008 53 308 0.0 0.0 0.00 0.00 0.00 74 1014.7
20260502121541 0 0.0 0.0 0.00 0.00 0.00 1014.6
20260502114515 0 0.0 0.0 0.00 0.00 0.00 1014.3
20260502113011 0 0.0 0.0 0.00 0.00 0.00 1014.3
20260502111555 0 0.0 0.0 0.00 0.00 0.00 1014.2
20260502110046 0 0.0 0.0 0.00 0.00 0.00 1014.1
20260502104530 0 0.0 0.0 0.00 0.00 0.00 1014.2
20260502103020 0 0.0 0.0 0.00 0.00 0.00 1013.7
20260502101613 0 0.0 0.0 0.00 0.00 0.00 1014.4
20260502100130 54 69 0.0 0.0 0.00 0.00 0.00 80 1014.2
20260502091524 55 303 0.0 0.0 0.00 0.00 0.00 80 1014.1
20260502070058 56 286 0.0 0.0 0.00 0.01 0.00 91 1014.1
20260502064541 55 263 0.0 0.0 0.00 0.01 0.00 92 1014.3
20260502063037 56 140 0.0 0.0 0.00 0.01 0.00 93 1014.1
20260502061531 56 140 0.0 0.0 0.00 0.01 0.00 94 1014.2
20260502060021 56 140 0.0 0.0 0.00 0.01 0.00 94 1014.2
20260502054559 57 140 0.0 0.0 0.00 0.01 0.00 94 1014.1
20260502053109 57 138 0.0 0.0 0.00 0.01 0.00 94 1014.1
20260502051541 57 138 0.0 0.0 0.00 0.01 0.00 94 1014.1
20260502050038 57 138 0.0 0.0 0.00 0.01 0.00 94 1014.0
20260502044520 57 115 0.0 0.0 0.00 0.01 0.00 94 1013.9
20260502043022 57 115 0.0 0.0 0.00 0.01 0.00 94 1013.6
20260502041605 57 115 0.0 0.0 0.00 0.01 0.00 94 1013.8
20260502040059 56 115 0.0 0.0 0.00 0.01 0.01 94 1013.9
20260502034543 56 115 0.0 0.0 0.00 0.01 0.01 93 1013.9
20260502033038 56 115 0.0 0.0 0.00 0.01 0.01 93 1014.2
20260502031521 57 115 0.0 0.0 0.00 0.01 0.01 93 1014.5
20260502030021 57 115 0.0 0.0 0.00 0.01 0.01 93 1014.6
20260502024502 57 115 0.0 0.0 0.00 0.01 0.01 93 1014.7
20260502023002 57 115 0.0 0.0 0.00 0.01 0.01 92 1014.7
20260502021547 57 115 0.0 0.0 0.00 0.01 0.01 92 1014.9
20260502020046 58 115 0.0 0.0 0.00 0.01 0.01 91 1014.7
20260502014532 58 113 0.0 0.0 0.00 0.01 0.01 90 1014.8
20260502013026 58 113 0.0 0.0 0.00 0.01 0.01 89 1014.6
20260502011508 59 113 0.0 0.0 0.00 0.01 0.01 87 1014.4
20260502010009 59 113 0.0 0.0 0.00 0.01 0.01 85 1014.1
20260502004556 59 115 0.0 0.0 0.00 0.01 0.01 84 1013.9
20260502003049 60 115 0.0 0.0 0.00 0.01 0.01 83 1013.8
20260502001531 60 342 0.0 0.0 0.00 0.01 0.01 80 1013.5
20260502000030 61 342 0.0 0.0 0.00 0.01 0.01 77 1013.3
20260501234515 61 310 0.0 0.0 0.00 0.01 0.01 75 1013.4
20260501233012 62 310 0.0 0.0 0.00 0.01 0.01 75 1013.4
20260501231558 62 309 0.0 0.0 0.00 0.01 0.01 74 1013.5
20260501230059 62 350 0.0 0.0 0.00 0.01 0.01 72 1013.4